Wind_Speed
35 36 38 39 39 40 41 41 41 41 41 42 43 44 45 46 47 47 47 47 48 48 48 48 47 48 48 48 48 48 48 48 48 48 48 48 49 49 49 49 49 49 49
36 37 38 39 39 40 40 41 41 42 43 43 43 44 45 46 46 46 47 47 47 47 48 49 49 48 48 48 49 49 49 49 49 50 50 50 51 50 50 50 51 51 51
36 37 38 38 39 39 40 41 41 42 43 44 44 44 44 45 46 46 47 47 47 48 48 49 49 49 49 49 50 50 51 51 51 51 51 51 51 51 51 51 52 51 51
36 37 38 39 39 39 40 41 41 42 43 43 44 44 44 45 45 46 47 47 48 48 48 48 49 49 49 50 51 51 51 51 51 51 51 51 51 51 51 51 52 52 51
35 36 38 39 39 39 40 40 40 41 42 43 43 44 44 44 45 45 46 47 48 48 48 48 49 49 50 50 50 51 51 51 51 51 51 51 51 51 51 50 51 51 51
32 34 35 37 38 39 39 40 39 39 40 41 42 43 44 44 44 45 46 47 47 47 48 48 48 48 49 49 49 50 50 51 51 51 51 51 50 49 49 49 49 50 50
30 31 33 35 36 37 38 38 38 39 39 40 41 43 44 44 44 45 45 46 47 47 47 48 48 48 48 48 48 49 49 50 50 51 50 50 49 48 48 48 48 48 48
30 31 32 33 35 36 37 38 38 38 38 39 41 42 42 42 43 44 44 45 45 46 47 48 48 48 48 47 47 47 48 48 49 50 50 49 48 48 47 47 47 47 47
30 30 31 33 34 35 36 38 38 38 38 38 39 40 41 41 43 43 44 44 45 45 45 46 46 46 47 47 47 47 47 47 48 48 48 48 47 47 45 45 47 47 46
30 31 31 32 33 34 35 36 37 38 38 38 39 40 41 42 42 42 43 43 44 44 44 44 44 45 45 45 45 45 45 46 47 47 46 46 46 45 44 45 45 45 45
29 30 31 31 32 33 33 35 37 37 38 38 38 40 40 41 41 41 41 42 43 43 43 43 43 44 44 44 44 44 45 46 46 47 46 46 46 45 45 44 44 44 44
28 29 30 31 32 32 32 33 34 35 37 38 38 38 39 39 39 39 39 40 40 41 41 41 42 43 43 43 42 42 42 43 44 45 45 46 45 45 45 44 44 43 42
28 29 30 30 31 31 32 32 33 34 34 36 37 37 37 37 38 38 38 39 38 39 40 40 40 39 39 39 39 40 40 41 41 42 43 43 44 45 45 44 43 43 42
28 29 29 30 30 31 31 32 32 33 33 34 36 37 36 36 37 37 38 38 38 37 37 37 38 38 37 38 38 38 39 39 39 39 39 41 41 42 43 43 43 42 41
28 29 29 29 29 29 30 30 31 32 32 33 35 35 36 37 36 36 36 36 36 36 36 36 37 37 37 37 37 37 37 37 37 37 37 38 39 39 39 40 41 41 40
29 29 29 29 28 28 29 29 30 31 32 32 33 34 35 36 36 35 35 35 35 35 36 36 36 36 36 36 36 36 36 36 36 36 36 36 37 37 38 38 39 39 39
30 30 29 29 28 28 28 28 29 30 31 31 32 32 33 33 34 35 34 34 34 34 34 34 34 34 34 35 35 36 35 35 35 34 34 35 35 36 37 37 38 38 38
28 29 28 28 27 27 27 27 28 29 30 30 31 31 31 32 33 34 34 33 33 33 33 33 33 33 33 34 34 34 35 34 34 34 33 34 34 35 35 36 37 37 37
27 28 27 27 26 27 27 27 27 28 29 29 29 29 30 30 31 31 31 31 31 32 32 31 31 32 31 31 31 32 33 33 32 32 32 33 33 34 34 35 35 35 36
27 26 26 27 27 26 26 26 26 27 27 28 28 28 28 28 29 29 29 30 30 30 30 30 30 29 29 29 29 29 30 31 31 31 31 31 31 31 32 33 34 35 36
26 26 26 26 26 25 25 25 26 26 26 26 26 26 27 27 27 27 27 27 28 28 28 28 28 28 28 28 27 28 29 29 29 29 29 28 28 29 30 32 32 33 34
25 24 25 25 25 25 25 25 25 25 25 25 24 25 25 25 25 25 25 26 26 26 26 26 27 27 27 26 26 26 27 27 26 26 26 26 27 28 29 30 31 31 31
23 24 25 25 24 24 25 25 25 25 24 24 24 23 23 23 23 24 24 24 23 24 24 24 24 24 24 24 25 25 24 25 25 25 25 25 25 25 27 27 28 29 30
23 24 25 25 25 25 25 24 24 23 22 22 22 22 22 21 21 21 22 22 21 21 21 21 22 22 23 23 22 22 23 23 23 23 22 22 23 24 25 25 26 26 27
24 24 25 25 24 24 24 23 23 22 21 21 21 21 21 21 20 20 20 20 19 19 19 20 20 20 20 20 21 20 20 20 20 21 20 21 22 22 23 23 23 23 23
23 23 24 23 23 23 22 21 21 20 20 19 19 20 19 19 19 18 18 18 18 18 18 18 18 18 18 18 18 18 18 18 18 19 19 19 19 19 20 20 20 20 20
Wind_Direction
253 252 251 252 252 253 253 254 255 258 258 258 258 258 258 258 259 259 259 259 259 260 260 260 260 260 262 262 263 264 264 264 265 265 266 265 265 266 265 264 264 265 266
255 254 253 253 253 253 254 255 257 258 259 259 259 259 259 259 259 260 260 260 260 260 260 261 260 261 261 263 263 264 264 265 265 265 266 266 266 265 265 265 265 267 268
256 255 254 254 254 254 256 257 257 258 259 259 259 259 260 260 260 260 259 260 260 260 261 262 261 262 262 263 264 264 264 264 265 266 266 266 266 265 265 266 266 267 268
257 255 255 255 256 255 256 257 259 259 260 259 259 260 260 260 260 260 260 259 260 260 262 261 261 262 263 264 265 265 265 265 265 266 266 266 267 266 265 266 266 267 267
258 257 257 258 257 257 257 258 260 261 260 260 260 260 260 260 260 260 260 261 260 261 262 262 262 263 264 265 265 265 265 266 266 266 266 265 266 267 267 266 265 265 266
261 259 259 260 259 258 258 258 261 261 261 261 261 261 261 261 261 261 262 262 261 261 262 262 263 264 265 265 265 265 265 265 266 266 265 266 266 266 266 265 264 264 265
263 262 261 261 260 259 260 260 261 261 262 262 262 262 262 261 261 262 263 262 261 261 261 262 263 264 265 265 265 265 265 265 265 265 265 266 266 266 266 265 264 264 266
264 264 263 262 261 260 261 261 261 261 263 262 262 262 263 263 262 263 263 262 262 261 261 263 263 264 265 265 264 264 265 265 265 265 265 266 265 266 265 265 265 265 266
266 265 264 264 264 263 262 262 261 261 262 263 264 263 263 263 263 263 262 262 261 262 262 263 264 265 265 265 264 264 265 266 265 265 264 264 264 265 265 265 266 266 266
267 266 265 265 266 265 264 262 262 261 262 264 265 264 265 265 264 263 263 264 263 263 264 265 265 266 266 266 266 265 265 266 266 265 264 262 263 264 264 265 266 267 267
269 268 267 268 268 268 267 265 264 264 263 264 265 266 265 267 265 264 264 264 265 265 266 266 266 267 266 266 266 266 266 266 265 264 263 261 261 262 263 263 264 266 269
269 269 269 269 269 269 269 268 267 266 265 265 266 267 268 269 268 267 265 266 266 266 266 266 267 267 267 266 266 266 266 266 265 264 263 261 261 261 262 262 263 266 268
271 271 271 271 270 270 270 269 269 268 267 267 268 268 270 269 268 267 266 265 265 266 267 266 266 266 267 266 265 266 266 267 266 265 263 261 261 260 260 261 262 264 267
273 272 274 273 272 271 271 271 271 270 270 269 269 269 269 269 269 267 267 267 266 267 267 266 265 266 266 266 265 265 266 266 266 266 264 263 262 262 261 260 262 264 265
274 274 274 275 274 273 273 272 272 272 272 271 270 270 270 270 269 268 267 267 267 267 267 268 266 267 267 267 266 266 266 266 266 266 265 263 262 261 261 260 261 262 264
274 275 275 275 275 275 274 273 274 274 273 273 272 271 271 270 270 269 268 268 267 266 267 267 267 267 267 267 266 265 266 266 266 266 265 263 262 261 261 262 262 262 262
275 276 276 277 277 277 277 277 276 275 275 275 273 273 272 271 271 270 268 267 267 267 268 268 267 267 267 267 267 266 266 266 266 266 266 265 263 262 262 262 262 262 261
276 275 275 277 277 278 279 280 278 277 277 276 275 274 273 272 271 268 267 267 268 268 268 268 268 268 268 268 267 267 265 265 265 265 266 265 263 262 263 262 262 262 262
276 275 275 276 276 277 280 281 280 280 279 277 276 274 273 272 271 268 266 267 268 270 269 268 269 269 269 270 268 267 266 265 264 265 265 264 263 262 263 263 263 262 262
276 275 275 277 277 278 279 280 281 282 282 280 277 274 273 273 271 268 267 268 269 269 268 268 269 270 270 271 270 268 267 266 264 264 265 264 263 262 263 264 264 263 263
276 275 276 277 277 278 279 280 282 284 284 281 279 277 276 274 271 268 267 268 268 267 268 268 268 269 271 271 270 269 268 267 265 265 264 265 264 264 265 266 266 265 264
275 275 275 277 278 278 279 280 282 283 284 282 280 279 279 275 270 268 266 266 266 266 267 268 268 269 271 271 269 269 270 268 265 265 267 267 267 266 265 267 267 266 265
274 275 276 278 279 279 279 281 282 283 283 282 281 279 277 275 272 268 267 268 266 266 267 268 269 270 271 271 270 270 268 267 266 266 267 267 268 268 269 269 268 267 266
277 277 277 279 279 280 281 282 284 283 281 280 279 277 274 272 270 266 266 267 266 265 266 267 269 271 271 271 272 271 271 270 267 265 265 267 268 270 270 270 269 268 266
277 278 278 279 280 282 283 282 283 281 278 278 277 276 273 271 270 266 265 266 266 266 267 267 269 270 271 272 272 271 271 271 268 266 266 267 268 269 269 269 269 267 266
278 279 280 280 281 282 282 281 281 280 277 275 275 276 273 269 269 267 266 267 268 268 267 267 269 270 271 271 270 269 270 268 266 266 265 267 269 270 269 270 269 267 267
Height
5690 5691 5693 5695 5697 5699 5701 5702 5704 5705 5706 5707 5708 5709 5710 5711 5712 5712 5713 5715 5716 5717 5718 5719 5721 5722 5723 5723 5724 5724 5724 5724 5724 5724 5725 5725 5724 5724 5724 5724 5724 5724 5724
5681 5683 5684 5685 5687 5689 5690 5692 5693 5694 5695 5696 5697 5698 5699 5700 5700 5701 5702 5703 5704 5705 5706 5708 5709 5710 5710 5711 5711 5711 5711 5712 5711 5711 5711 5712 5713 5712 5711 5711 5711 5711 5711
5672 5673 5674 5675 5677 5679 5680 5681 5682 5683 5684 5685 5686 5687 5688 5688 5689 5689 5690 5691 5692 5694 5695 5695 5696 5697 5698 5699 5698 5698 5699 5699 5698 5698 5698 5698 5699 5699 5699 5698 5698 5698 5698
5663 5664 5665 5666 5667 5668 5669 5670 5671 5672 5673 5674 5675 5676 5677 5677 5677 5678 5678 5679 5680 5681 5682 5683 5684 5684 5685 5685 5685 5685 5685 5685 5685 5685 5684 5684 5684 5685 5686 5686 5685 5684 5684
5653 5654 5654 5655 5656 5657 5658 5659 5659 5661 5662 5663 5664 5665 5665 5666 5666 5666 5667 5668 5668 5669 5670 5670 5671 5672 5672 5672 5672 5672 5672 5672 5672 5672 5671 5671 5671 5671 5671 5673 5672 5671 5671
5644 5644 5645 5645 5646 5647 5647 5648 5649 5650 5651 5651 5652 5653 5654 5654 5655 5655 5655 5656 5657 5657 5658 5658 5659 5659 5659 5659 5659 5658 5658 5659 5659 5659 5658 5658 5658 5658 5658 5659 5659 5659 5659
5635 5635 5636 5636 5636 5637 5637 5638 5638 5639 5639 5640 5641 5642 5642 5643 5643 5644 5644 5644 5645 5645 5646 5646 5646 5646 5646 5646 5645 5645 5645 5646 5646 5646 5646 5645 5645 5646 5645 5646 5646 5647 5647
5627 5627 5626 5626 5626 5627 5627 5628 5628 5628 5629 5629 5630 5630 5631 5631 5632 5632 5633 5633 5633 5633 5634 5633 5634 5633 5633 5633 5632 5632 5632 5632 5633 5633 5633 5633 5633 5633 5634 5634 5634 5635 5635
5617 5617 5617 5617 5617 5617 5617 5617 5617 5618 5618 5619 5619 5619 5620 5620 5620 5620 5621 5621 5621 5621 5621 5621 5621 5621 5621 5620 5620 5619 5620 5620 5620 5620 5620 5620 5621 5621 5622 5622 5623 5624 5624
5609 5608 5608 5608 5607 5607 5607 5607 5607 5607 5608 5608 5608 5608 5608 5609 5609 5609 5609 5609 5609 5609 5609 5609 5609 5608 5608 5608 5607 5607 5607 5607 5607 5607 5608 5608 5609 5609 5610 5610 5611 5612 5612
5600 5599 5599 5599 5598 5597 5597 5597 5597 5597 5597 5597 5597 5598 5598 5598 5597 5597 5597 5597 5597 5597 5597 5597 5596 5596 5595 5595 5595 5595 5595 5595 5595 5595 5595 5596 5597 5597 5598 5599 5600 5600 5601
5592 5591 5590 5590 5589 5588 5588 5587 5587 5586 5586 5586 5587 5587 5587 5587 5586 5586 5586 5586 5586 5586 5585 5585 5584 5584 5583 5583 5583 5582 5582 5582 5582 5582 5583 5584 5584 5586 5587 5588 5589 5589 5589
5583 5582 5581 5581 5580 5579 5578 5578 5577 5576 5576 5576 5576 5576 5576 5575 5575 5575 5575 5575 5575 5574 5574 5573 5573 5572 5572 5571 5571 5571 5571 5571 5571 5570 5571 5571 5572 5574 5575 5576 5577 5578 5578
5574 5573 5573 5572 5571 5570 5569 5568 5568 5567 5566 5566 5566 5565 5565 5564 5564 5564 5564 5564 5563 5563 5562 5562 5562 5561 5561 5560 5560 5560 5560 5560 5560 5560 5560 5560 5561 5562 5564 5565 5566 5567 5568
5565 5565 5564 5563 5562 5561 5560 5559 5558 5558 5557 5556 5555 5555 5554 5554 5554 5553 5553 5553 5553 5552 5552 5551 5551 5551 5550 5549 5549 5549 5549 5549 5550 5550 5550 5550 5551 5552 5553 5554 5555 5556 5557
5556 5555 5555 5554 5553 5552 5551 5550 5549 5548 5547 5546 5545 5545 5544 5544 5543 5543 5542 5542 5542 5542 5542 5541 5541 5540 5540 5539 5539 5539 5539 5539 5540 5540 5540 5541 5541 5542 5543 5544 5545 5546 5547
5547 5546 5545 5545 5544 5543 5542 5541 5540 5539 5538 5537 5536 5535 5534 5533 5533 5532 5532 5532 5532 5532 5532 5531 5531 5531 5530 5530 5529 5529 5529 5530 5530 5531 5531 5531 5532 5532 5533 5533 5534 5535 5536
5538 5538 5537 5536 5535 5534 5533 5532 5530 5529 5528 5527 5526 5525 5524 5523 5523 5522 5522 5522 5522 5523 5522 5522 5521 5521 5521 5520 5520 5519 5520 5521 5521 5522 5522 5522 5522 5523 5524 5524 5525 5526 5526
5530 5529 5528 5528 5527 5526 5525 5523 5522 5520 5519 5517 5516 5515 5514 5513 5513 5512 5512 5513 5513 5513 5513 5513 5512 5512 5512 5511 5511 5510 5511 5511 5512 5513 5513 5513 5514 5514 5515 5515 5516 5516 5517
5522 5521 5520 5519 5519 5518 5516 5515 5513 5512 5510 5508 5507 5505 5504 5504 5504 5503 5503 5504 5504 5504 5504 5504 5504 5504 5504 5503 5502 5502 5502 5503 5504 5504 5504 5504 5505 5505 5505 5506 5506 5507 5507
5514 5513 5512 5511 5510 5509 5508 5507 5505 5504 5502 5500 5498 5497 5496 5495 5495 5495 5495 5495 5495 5495 5496 5496 5496 5496 5495 5495 5494 5494 5494 5494 5495 5495 5496 5496 5496 5497 5497 5497 5497 5497 5497
5506 5505 5504 5503 5502 5501 5500 5499 5498 5496 5493 5492 5490 5489 5488 5487 5487 5487 5487 5487 5487 5487 5487 5488 5488 5488 5487 5487 5487 5486 5486 5486 5487 5487 5488 5488 5488 5488 5488 5488 5488 5488 5488
5498 5497 5496 5495 5494 5493 5492 5491 5489 5487 5486 5484 5483 5482 5481 5480 5479 5479 5479 5479 5479 5480 5480 5480 5480 5480 5480 5480 5479 5479 5479 5479 5479 5479 5480 5480 5480 5480 5480 5480 5479 5479 5480
5490 5489 5489 5488 5487 5485 5484 5483 5481 5479 5478 5477 5476 5475 5474 5473 5473 5472 5472 5473 5473 5473 5473 5473 5473 5473 5473 5472 5472 5472 5472 5472 5472 5472 5473 5473 5473 5473 5473 5472 5472 5472 5472
5482 5482 5481 5480 5479 5477 5476 5475 5473 5472 5471 5470 5468 5468 5467 5466 5466 5466 5466 5466 5467 5467 5467 5467 5467 5466 5466 5466 5465 5465 5465 5465 5465 5465 5466 5466 5466 5466 5466 5465 5465 5465 5465
5475 5474 5473 5472 5471 5469 5468 5467 5466 5465 5463 5462 5462 5461 5460 5460 5460 5460 5460 5460 5461 5461 5461 5461 5461 5460 5460 5459 5459 5459 5459 5459 5459 5459 5460 5460 5460 5460 5459 5459 5459 5459 5459